Location: Newark
(25.0000°N, 73.5000°E)
Time: 14:58:33
(UTC+00:00)

RS-15 - Pass Details

Date: 01 March 2020
Orbit: 1898 x 2146 km, 64.8° (Epoch: 08 April)

Event Time Altitude Azimuth Distance (km) Brightness Sun altitude
Rises 00:54:15 0° 321° (NW) 5,373 9.9 -8.6°
Reaches altitude 10° 00:57:56 10° 312° (NW) 4,403 9.4 -7.8°
Maximum altitude 01:07:34 34° 254° (WSW) 2,993 8.6 -5.6°
Drops below altitude 10° 01:17:38 10° 195° (SSW) 4,565 9.9 -3.3°
Sets 01:21:36 0° 186° (S) 5,594 10.5 -2.4°
